Regional Weather Roundup
Issued by NWS Newport/Morehead, NC

Current Version | Previous Version | Graphics & Text | Print | Product List | Glossary Off
Versions: 1 2 3 4 5 6 7 8 9 10 11 12 13 14 15 16 17 18 19 20 21 22 23 24 25 26 27 28 29 30 31 32 33 34 35 36 37 38 39 40 41 42 43 44 45 46 47 48 49 50

000
ASUS42 KMHX 041713
RWRMHX
WEATHER ROUNDUP FOR EASTERN NORTH CAROLINA
NATIONAL WEATHER SERVICE NEWPORT/MOREHEAD CITY NC
100 PM EDT FRI SEP 04 2015

NOTE: "FAIR" INDICATES FEW OR NO CLOUDS BELOW 12,000 FEET
WITH NO SIGNIFICANT WEATHER AND/OR OBSTRUCTIONS TO VISIBILITY

NCZ015>017-031-032-045>047-102-103-041800-
NORTH COAST

CITY           SKY/WX    TMP DP  RH WIND       PRES   REMARKS
EDENTON        PTSUNNY   88  72  59 CALM      29.98F
ELIZABETH CITY MOSUNNY   88  72  58 NE10      29.98S
KITTY HAWK     SUNNY     86  74  68 N8        29.97S
MANTEO         SUNNY     85  75  73 NE8       29.98S

$$

NCZ045>047-081-094-103-104-041800-
CENTRAL COAST

CITY           SKY/WX    TMP DP  RH WIND       PRES   REMARKS
FRISCO         SUNNY     87  75  67 VRB5      29.97F
SWANQUARTER      N/A     90 N/A N/A N3G10     29.91F

$$

NCZ095-097-098-100-101-041800-
SOUTHERN COAST

CITY           SKY/WX    TMP DP  RH WIND       PRES   REMARKS
BEAUFORT       MOSUNNY   86  72  62 W6        29.97F
CEDAR ISLAND     N/A     86 N/A N/A NW3       30.03S
JACKSONVILLE   SUNNY     90  69  50 N5        29.98S
PINEY ISLAND   NOT AVBL
WILMINGTON     SUNNY     90  70  51 VRB5      29.98F


$$

NCZ011>013-027>030-043-044-078>080-089-090>093-098-041800-
COASTAL PLAIN

CITY           SKY/WX    TMP DP  RH WIND       PRES   REMARKS
AHOSKIE        PTSUNNY   85  74  69 N3        29.99F
CLINTON        SUNNY     90  71  53 N6        29.99F
ELIZABETHTOWN  MOSUNNY   89  68  49 CALM      29.99S
GOLDSBORO      PTSUNNY   91  71  53 VRB2      29.98F
GREENVILLE     SUNNY     90  72  55 N5        30.00F
HAVELOCK       MOSUNNY   91  65  41 NE5       29.99F
KENANSVILLE      N/A     88  67  50 CALM      30.00S
KINSTON        SUNNY     90  70  51 N3        30.00S
NEW BERN       SUNNY     89  70  53 N3        29.99F
RICHLANDS      MOSUNNY   90  68  48 CALM      29.99S
ROCKY MOUNT    SUNNY     92  69  47 N7        29.99F
WASHINGTON     SUNNY     89  71  55 CALM      29.98F
WHITEVILLE     MOSUNNY   89  70  54 E6        29.98S

$$

AMZ130-135-150-152-154-156-158-170-250-252-270-ANZ085-086-088-633-658-670-041800-
MARINE OBSERVATIONS

STATION/POSITION TIME  TEMP    WIND        PRES    WAVE   SWELL
                       AIR SEA DIR/SP/G            HT/PER HT/PER
                 (UTC) (F)     (DEG/KT/KT) (MB)    (FT/S) (FT/S)
CHESAPEAKE LIGHT 1700   80      60/ 14/ 15 1016.3
64 E VA BEACH    1650   80 80   60/ 12/ 14 1014.6    1/11   2/11
DUCK             1600   80 80   30/ 11/ 11 1014.4
2 E DUCK         1611      80                N/A     1/13
OREGON INLET     1600   84 82   10/  6/ 11 1015.0
13E OREGON INLT  1700      81                N/A     1/12
HATTERAS CG      1600   82 82  340/  5/  6 1014.9
DIAMOND BUOY     1650   83 84  350/  6/  6 1014.9    1/11   2/11
CAPE LOOKOUT     1700   83      80/  5/  5 1014.8
BEAUFORT LAB     1600   85 81  340/  4/  7 1014.6
30 SE NEW RVR IN 1608   83 82   40/  4/  6 1015.6
30 SE NEW RVR IN 1625      83                N/A     1/13
27 SE WRIGHTSVLE 1600   78 82   60/  4/  6   N/A
5 SE WRIGHTSVLE  1608   81 82   60/  6/  6 1015.4
225 S CAPE HAT   1650   82 85   30/  4/  4 1014.4    2/12   2/12
41 SE CHARLESTON 1650   83 85   40/  4/  4 1014.9    1/ 7   2/ 7

$$



USA.gov is the U.S. government's official web portal to all federal, state and local government web resources and services.